Location: Holkham
(52.9500°N, 0.8167°E)
Time: 22:26:06
(UTC+00:00)

Cosmos 2322 Rocket - Pass Details

Date: 19 May 2025
Orbit: 832 x 850 km, 71.0° (Epoch: 12 June)

Event Time Altitude Azimuth Distance (km) Brightness Sun altitude
Rises 22:48:09 0° 328° (NNW) 3,420 6.9 -15.7°
Reaches altitude 10° 22:50:39 10° 332° (NNW) 2,479 5.9 -15.8°
Maximum altitude 22:56:18 62° 54° (NE) 948 2.5 -16.0°
Enters shadow 23:00:25 19° 131° (SE) 1,921 3.6 -16.2°
